This is the latest recevied weather packets stored in our database for station/object KW4UJ. If no packets are shown the sender has not sent any weather packets the latest 10 day(s).
| Time | Temp. | Humidity | Pressure | Rain* | Wind** | Luminosity | Snow |
|---|---|---|---|---|---|---|---|
| 1777824703 | 12.22° C | 39% | 1016.9 hPa | 0 mm | - | 188 W/m² | - |
| 1777824401 | 12.78° C | 37% | 1017 hPa | 0 mm | - | 108 W/m² | - |
| 1777824096 | 12.78° C | 38% | 1016.8 hPa | 0 mm | - | 147 W/m² | - |
| 1777823793 | 12.78° C | 39% | 1016.9 hPa | 0 mm | - | 205 W/m² | - |
| 1777823490 | 12.22° C | 39% | 1016.9 hPa | 0 mm | - | 76 W/m² | - |
| 1777823187 | 12.22° C | 39% | 1016.8 hPa | 0 mm | - | 387 W/m² | - |
| 1777822885 | 12.22° C | 39% | 1017 hPa | 0 mm | - | 544 W/m² | - |
| 1777822583 | 12.22° C | 38% | 1017.1 hPa | 0 mm | - | 110 W/m² | - |
| 1777822280 | 12.22° C | 38% | 1017 hPa | 0 mm | - | 472 W/m² | - |
| 1777821977 | 11.67° C | 39% | 1017.2 hPa | 0 mm | - | 607 W/m² | - |
| 1777821675 | 11.67° C | 40% | 1017 hPa | 0 mm | - | 598 W/m² | - |
| 1777821373 | 11.67° C | 40% | 1017.1 hPa | 0 mm | - | 589 W/m² | - |
| 1777821069 | 11.67° C | 40% | 1017.2 hPa | 0 mm | - | 373 W/m² | - |
| 1777820766 | 11.11° C | 42% | 1017 hPa | 0 mm | - | 214 W/m² | - |
| 1777820462 | 11.11° C | 40% | 1017 hPa | 0 mm | - | 567 W/m² | - |
| 1777820159 | 11.11° C | 41% | 1017.2 hPa | 0 mm | - | 67 W/m² | - |
| 1777819857 | 11.11° C | 41% | 1017 hPa | 0 mm | - | 557 W/m² | - |
| 1777819554 | 11.11° C | 42% | 1017 hPa | 0 mm | - | 540 W/m² | - |
| 1777819251 | 11.11° C | 42% | 1017.3 hPa | 0 mm | - | 523 W/m² | - |
| 1777818948 | 11.11° C | 43% | 1017.3 hPa | 0 mm | - | 555 W/m² | - |
| 1777818644 | 10.56° C | 43% | 1017.3 hPa | 0 mm | - | 536 W/m² | - |
| 1777818342 | 10.56° C | 42% | 1017.3 hPa | 0 mm | - | 519 W/m² | - |
| 1777818038 | 10.56° C | 44% | 1017.3 hPa | 0 mm | - | 509 W/m² | - |
| 1777817735 | 10.56° C | 44% | 1017.3 hPa | 0 mm | - | 491 W/m² | - |
| 1777817433 | 10.56° C | 45% | 1017.3 hPa | 0 mm | - | 470 W/m² | - |
* Rain latest hour (hover to see other rain measurements)
** Current wind speed in m/s (hover to see current wind gust speed)